Location: Milton
(43.5183°N, 79.8775°W)
Time: 10:21:50
(UTC+00:00)

COSMOS 2251 DEB - Pass Details

Date: 15 December 2023
Orbit: 708 x 767 km, 74.0° (Epoch: 04 March)

Event Time Altitude Azimuth Distance (km) Brightness Sun altitude
Exits shadow 12:07:58 - 311° (NW) 2,532 ? -6.8°
Reaches altitude 10° 12:08:52 10° 304° (NW) 2,294 ? -6.6°
Maximum altitude 12:12:11 17° 264° (W) 1,841 ? -6.1°
Drops below altitude 10° 12:15:31 10° 224° (SW) 2,299 ? -5.6°
Sets 12:18:38 0° 205° (SSW) 3,224 ? -5.1°
